{"data":{"norad_id":65837,"intl_designator":"2025-221Q","name":"STARLINK-35314","alt_names":[],"object_type":"PAYLOAD","status":"ACTIVE","operator":null,"country":"US","launch_date":"2025-09-29","launch_site_code":"AFWTR","launch_vehicle":null,"mission":null,"orbit_class":"UNKNOWN","rcs_meters":null,"size_class":null,"mass_kg":null,"dimensions":null,"purposes":["comms"],"wikipedia_slug":null,"has_3d_model":false,"image_url":null,"decayed_at":null,"tle_current":{"epoch":"2026-05-25T03:39:11.287008Z","epoch_age_seconds":55731,"freshness":"FRESH","line1":"1 65837U 25221Q   26145.15221397  .00014485  00000+0  43892-3 0  9999","line2":"2 65837  53.1576  92.9304 0000994  63.3050 296.8054 15.34405123 36443","mean_motion":15.34405123,"eccentricity":9.94e-5,"inclination_deg":53.1576,"raan_deg":92.9304,"arg_perigee_deg":63.305,"mean_anomaly_deg":296.8054,"bstar":0.00043892,"rev_number":3644,"period_min":93.847444746833,"perigee_km":462.00803560749,"apogee_km":463.3679916202,"semimajor_km":6840.8250136138,"source":"CELESTRAK","updated_at":"2026-05-25T13:38:20.944928Z"}}}